Wind_Speed
100 96 89 92 90 82 76 71 60 58 50 46 47 45 43 34 33 30 28 26 23 20 24 22 19 18 15 16 18 18 21 17 13 11 10 9 8 7 6 3 1 1 3
104 101 96 97 96 89 79 75 71 71 70 57 52 48 46 38 40 37 33 30 26 23 26 22 19 18 16 16 21 20 22 21 16 14 12 11 10 9 11 8 5 2 3
109 106 102 98 99 96 85 80 76 77 71 62 61 52 52 45 41 34 34 36 29 28 29 27 24 21 19 20 20 22 21 24 20 15 12 11 11 12 12 9 6 4 6
115 112 106 102 99 97 91 85 79 73 73 63 62 53 51 46 44 37 36 35 30 30 31 30 30 23 21 20 21 22 22 24 23 18 14 12 11 11 12 10 8 6 6
120 116 111 107 100 96 96 90 81 76 73 73 61 52 49 51 50 44 39 37 32 31 31 35 29 27 25 22 24 24 23 22 26 22 16 13 11 11 13 13 10 7 8
122 120 116 110 108 99 95 92 84 78 74 74 68 60 55 50 47 44 43 42 39 34 34 37 32 29 25 21 21 25 24 24 24 26 19 16 13 11 12 12 12 11 10
123 124 119 115 112 107 101 93 86 80 77 76 74 68 65 59 57 51 48 44 40 36 38 39 37 34 26 22 19 22 24 25 22 28 24 20 15 13 13 13 12 13 11
123 124 124 119 115 113 108 101 95 85 81 76 73 71 68 65 63 56 50 45 45 39 39 42 37 34 29 23 20 21 26 24 20 25 29 22 19 15 14 13 14 13 12
119 125 127 123 119 114 111 105 96 90 84 80 73 69 71 69 65 62 53 50 44 38 43 45 42 37 32 26 23 18 26 24 20 19 27 26 23 19 17 16 15 14 14
111 122 128 127 122 117 112 106 98 91 85 82 77 72 71 73 72 63 61 53 47 43 47 48 44 39 35 32 27 21 18 26 24 24 21 27 26 24 21 19 18 17 17
106 117 127 128 125 119 115 110 102 96 89 82 80 73 72 70 69 65 60 58 54 48 48 48 43 40 39 34 29 25 20 20 23 25 24 21 26 26 26 24 21 20 20
103 113 124 126 125 121 118 109 102 97 91 83 80 75 72 71 71 68 62 58 57 50 50 52 46 45 42 43 35 30 29 25 23 23 24 24 23 22 23 25 27 26 25
96 108 120 125 126 122 117 111 104 95 89 82 74 77 73 71 74 70 65 64 59 56 52 56 52 50 42 39 38 36 35 30 28 26 25 25 23 23 23 21 21 22 24
91 101 113 121 124 124 118 112 103 94 89 81 77 77 72 70 71 70 68 65 62 59 57 59 55 52 47 45 42 38 38 36 35 33 29 26 26 22 23 21 19 23 26
85 97 109 116 123 125 118 114 102 94 91 84 78 79 71 70 72 72 73 66 66 63 63 61 59 58 54 47 47 45 41 41 40 37 35 33 31 26 25 27 28 29 29
79 91 103 112 119 123 119 112 103 95 89 82 82 82 73 71 73 69 73 71 69 68 68 66 62 63 61 51 47 44 42 42 44 42 42 39 38 37 36 34 35 37 37
75 86 98 106 115 120 117 110 103 95 90 84 85 83 79 77 79 75 75 76 73 72 71 68 67 66 60 57 54 49 46 48 45 42 43 41 42 40 38 37 43 44 42
78 82 91 99 112 118 116 110 102 94 92 91 89 88 86 82 83 84 78 81 74 77 73 71 67 68 63 59 56 56 52 52 51 47 45 45 43 41 40 39 40 41 39
72 82 88 92 106 114 113 107 102 94 95 92 92 92 89 89 89 87 84 79 77 74 77 70 66 64 63 61 59 57 56 54 55 54 50 51 50 46 45 43 44 43 39
59 75 83 89 101 111 111 106 100 95 95 93 93 93 95 94 89 88 86 78 77 77 73 73 70 68 64 61 60 58 56 58 59 60 59 57 57 53 49 48 49 49 49
58 67 72 82 99 107 108 103 99 96 95 96 98 95 94 90 92 87 88 85 80 84 83 78 75 74 74 71 69 66 66 67 63 62 65 62 61 59 58 58 54 55 52
49 65 70 81 96 104 104 102 98 95 94 94 94 93 93 94 94 92 89 89 89 86 84 86 87 83 84 85 83 82 80 79 72 69 67 67 69 67 64 63 63 59 57
45 59 69 81 93 98 99 99 97 94 94 96 96 93 92 94 92 90 89 89 90 89 92 86 86 88 89 87 87 86 87 88 85 80 76 74 73 69 68 64 66 66 62
40 56 66 79 87 92 93 96 96 93 93 95 99 98 95 96 95 95 91 94 92 92 92 92 91 90 90 90 90 91 90 87 90 88 83 81 80 78 77 77 75 72 69
34 53 65 73 81 87 89 92 93 94 93 96 99 98 100 100 98 98 98 99 100 96 96 94 95 95 93 92 94 96 96 94 92 93 92 89 87 84 83 82 84 80 77
20 45 62 72 77 82 88 92 95 97 96 96 95 103 100 100 103 105 104 101 103 102 100 100 95 95 95 94 93 95 97 98 95 94 92 90 90 92 93 93 93 92 84
Wind_Direction
226 222 219 216 219 220 222 222 208 206 211 212 217 223 222 220 230 233 247 253 264 255 241 244 238 246 243 241 232 228 229 237 248 264 274 281 296 311 342 7 249 305 321
225 225 221 215 215 220 220 223 213 215 218 215 215 219 221 215 227 232 244 254 256 246 243 240 239 234 241 245 236 233 230 234 243 252 270 273 281 293 313 326 323 301 311
222 224 224 218 213 216 219 220 221 216 213 218 216 221 226 225 232 232 242 249 255 250 241 236 236 252 237 249 245 236 239 233 239 247 256 267 278 289 300 314 313 310 310
222 220 223 222 214 213 215 219 220 220 215 217 222 220 228 229 231 231 237 241 249 248 244 238 236 241 245 242 242 237 238 239 238 246 253 256 267 286 296 299 303 314 320
220 220 218 221 216 213 213 217 219 220 219 220 219 216 226 226 225 230 231 238 245 249 247 242 236 239 245 243 243 239 238 240 240 241 254 259 259 272 289 293 287 298 294
218 219 217 217 220 214 212 213 216 220 221 219 216 215 218 223 224 224 226 237 244 247 251 240 227 234 234 241 245 242 235 236 244 239 246 260 262 273 288 304 289 288 283
217 217 217 214 216 218 213 212 215 219 223 221 221 215 217 219 227 228 234 236 239 246 248 243 230 232 238 240 246 241 232 229 243 243 238 252 260 272 284 295 293 292 277
215 214 216 214 215 216 218 216 218 220 222 222 223 220 216 221 225 225 229 237 241 242 244 237 227 229 239 236 244 244 224 227 241 246 240 243 252 259 273 284 287 302 297
213 211 212 214 213 215 217 219 220 221 223 221 221 222 219 219 223 228 227 236 232 244 247 232 229 230 232 235 234 232 221 228 236 248 244 246 251 257 264 271 281 287 294
212 209 210 212 212 212 215 217 219 220 222 224 220 222 223 218 223 227 225 230 233 244 244 234 227 224 222 230 229 227 222 231 238 241 250 249 254 258 262 268 272 279 285
210 207 208 210 211 212 213 214 216 219 219 221 221 221 223 220 221 224 226 229 233 239 240 232 224 224 226 232 224 230 226 225 232 238 243 250 256 265 271 269 272 279 283
207 205 206 207 208 211 213 213 214 217 218 216 222 221 222 219 219 221 219 225 231 237 241 237 228 227 231 238 228 231 232 229 228 230 236 241 246 254 266 277 281 284 289
204 205 204 205 206 208 212 212 212 214 214 214 217 221 221 222 219 216 218 224 227 232 238 230 230 228 225 228 228 231 233 233 236 234 234 241 246 253 254 258 264 272 284
201 202 201 203 204 205 210 211 210 211 210 210 211 221 220 218 215 215 218 221 225 230 234 227 227 230 223 223 231 234 237 235 240 242 240 240 242 250 259 262 274 274 276
197 201 201 202 202 204 206 210 207 208 208 208 209 220 218 218 216 219 218 221 225 229 230 224 228 230 234 233 229 233 240 242 241 244 245 247 250 251 263 276 279 280 280
195 199 201 200 200 202 204 207 207 207 207 208 208 218 218 217 219 223 219 222 224 228 234 228 232 236 238 235 231 238 245 247 244 245 248 248 252 255 261 269 273 277 279
192 197 200 198 198 200 202 205 206 206 206 205 210 215 218 218 221 223 224 223 223 224 233 228 234 234 230 232 233 236 241 247 247 246 245 250 252 257 262 271 273 274 276
192 197 199 199 197 199 201 203 204 204 206 204 210 214 217 220 223 224 226 225 222 226 224 228 231 231 230 235 239 243 241 245 248 249 250 249 253 260 266 270 272 273 275
190 196 201 200 198 198 200 202 203 203 205 202 211 214 216 220 224 228 228 224 224 229 227 225 228 232 230 232 237 239 245 247 248 248 248 256 258 259 264 269 268 268 272
188 193 198 200 198 197 200 201 203 204 206 203 211 214 217 220 223 228 228 228 229 225 224 227 229 232 230 232 234 238 244 248 250 253 255 252 257 257 259 265 267 268 268
185 192 195 198 196 197 200 202 204 205 207 205 213 216 220 222 225 228 231 232 234 232 231 232 233 234 236 236 236 239 245 247 252 255 253 253 253 259 263 262 266 264 266
183 190 192 196 196 198 201 203 205 207 209 205 215 219 222 223 225 229 232 234 236 238 235 236 237 239 243 245 246 247 250 251 254 256 259 257 257 258 260 260 260 261 262
182 188 192 194 197 200 202 204 207 209 211 210 215 221 223 226 228 229 232 235 237 239 238 239 240 243 242 244 248 252 255 258 260 260 262 260 261 260 260 261 262 264 261
180 189 193 196 199 203 205 207 210 211 214 215 215 222 225 228 230 231 234 235 234 237 240 242 244 244 246 249 251 253 256 255 258 261 263 265 264 266 263 263 264 263 262
183 188 194 199 201 205 208 211 213 214 217 219 218 221 227 230 233 235 235 237 237 240 239 241 246 249 249 248 252 254 254 257 258 259 263 264 267 266 267 267 267 267 269
169 195 198 201 206 209 212 214 216 217 218 221 223 223 228 232 235 237 238 239 240 238 240 241 242 246 250 252 253 255 256 257 260 262 262 263 265 269 267 266 266 268 270
Height
10662 10677 10694 10711 10725 10737 10747 10761 10768 10772 10778 10785 10792 10800 10808 10816 10819 10824 10828 10832 10834 10836 10837 10839 10840 10841 10841 10842 10844 10845 10847 10849 10850 10851 10851 10850 10850 10849 10848 10847 10846 10846 10845
10642 10658 10673 10690 10706 10720 10734 10746 10756 10760 10764 10778 10784 10791 10800 10809 10812 10819 10823 10827 10830 10832 10834 10836 10837 10838 10839 10839 10841 10843 10845 10846 10848 10849 10849 10848 10848 10848 10848 10847 10845 10844 10844
10623 10638 10652 10670 10689 10705 10719 10733 10742 10749 10758 10769 10777 10782 10792 10802 10805 10812 10817 10822 10825 10828 10830 10832 10834 10835 10836 10837 10838 10840 10841 10843 10845 10846 10847 10846 10846 10846 10846 10846 10845 10844 10843
10598 10617 10633 10649 10671 10688 10703 10717 10728 10736 10751 10760 10769 10775 10783 10793 10798 10806 10811 10816 10819 10822 10825 10828 10830 10831 10832 10833 10834 10836 10838 10840 10842 10844 10844 10844 10844 10844 10844 10844 10844 10843 10842
10570 10592 10615 10632 10652 10669 10686 10701 10714 10724 10738 10750 10759 10768 10775 10784 10791 10798 10804 10809 10813 10816 10820 10822 10825 10827 10828 10829 10830 10832 10834 10837 10838 10840 10842 10842 10842 10842 10842 10842 10842 10841 10841
10539 10563 10592 10614 10631 10651 10669 10685 10699 10711 10724 10738 10750 10761 10768 10774 10782 10789 10796 10803 10807 10810 10814 10817 10820 10822 10824 10825 10826 10828 10830 10833 10835 10836 10839 10840 10840 10840 10840 10840 10839 10839 10839
10510 10541 10565 10593 10614 10632 10652 10669 10686 10700 10712 10725 10737 10749 10759 10766 10771 10781 10789 10795 10800 10804 10807 10811 10815 10818 10820 10821 10822 10824 10826 10829 10831 10832 10834 10837 10838 10838 10838 10837 10837 10836 10836
10483 10517 10543 10570 10594 10615 10634 10653 10672 10686 10698 10713 10727 10737 10748 10757 10765 10772 10782 10788 10793 10798 10801 10804 10809 10813 10815 10817 10818 10819 10821 10825 10826 10828 10830 10832 10834 10835 10835 10835 10834 10834 10834
10456 10492 10520 10545 10575 10597 10617 10638 10658 10673 10687 10701 10714 10727 10737 10750 10757 10764 10775 10780 10785 10790 10793 10797 10803 10807 10810 10813 10814 10815 10817 10820 10822 10824 10826 10827 10829 10831 10831 10832 10832 10832 10832
10431 10468 10497 10525 10553 10580 10602 10623 10643 10662 10677 10687 10703 10716 10724 10736 10748 10757 10768 10772 10777 10783 10786 10789 10795 10800 10804 10807 10810 10811 10813 10816 10818 10820 10821 10823 10825 10826 10827 10828 10829 10829 10830
10421 10448 10478 10507 10538 10564 10585 10608 10630 10649 10666 10676 10692 10705 10714 10727 10739 10748 10759 10764 10768 10773 10779 10783 10788 10793 10797 10801 10804 10807 10808 10810 10812 10814 10817 10818 10820 10822 10823 10824 10825 10825 10826
10401 10428 10458 10489 10522 10547 10570 10596 10619 10638 10654 10669 10678 10694 10705 10715 10726 10737 10747 10753 10759 10764 10772 10777 10781 10785 10791 10795 10798 10800 10802 10804 10806 10809 10810 10813 10815 10817 10819 10820 10821 10821 10822
10386 10415 10442 10471 10505 10533 10557 10583 10605 10626 10645 10659 10667 10681 10695 10706 10716 10727 10737 10745 10752 10756 10765 10769 10772 10776 10781 10788 10791 10793 10796 10799 10801 10803 10805 10807 10809 10811 10813 10815 10816 10817 10817
10378 10408 10432 10459 10491 10522 10545 10571 10595 10616 10634 10649 10658 10670 10687 10697 10706 10716 10725 10735 10741 10749 10756 10759 10764 10768 10773 10778 10784 10787 10790 10792 10794 10797 10799 10801 10803 10806 10808 10810 10811 10812 10812
10377 10399 10425 10451 10481 10509 10535 10558 10586 10607 10623 10637 10651 10660 10678 10688 10697 10704 10715 10724 10732 10738 10744 10750 10755 10759 10764 10770 10775 10778 10782 10785 10787 10789 10792 10794 10797 10799 10802 10803 10804 10805 10806
10376 10398 10419 10444 10473 10502 10528 10552 10576 10596 10617 10632 10645 10653 10668 10678 10686 10693 10704 10713 10722 10728 10733 10741 10746 10750 10755 10761 10766 10769 10772 10776 10779 10782 10784 10786 10789 10792 10794 10796 10797 10798 10798
10378 10398 10418 10441 10468 10496 10521 10547 10569 10590 10612 10626 10635 10647 10656 10666 10674 10683 10690 10698 10707 10717 10722 10728 10734 10740 10746 10748 10754 10759 10763 10766 10769 10772 10775 10778 10781 10783 10786 10788 10789 10789 10791
10380 10401 10421 10442 10467 10491 10517 10541 10564 10585 10604 10616 10626 10634 10644 10655 10662 10669 10676 10685 10696 10704 10712 10717 10723 10729 10735 10739 10744 10748 10753 10757 10758 10761 10764 10769 10771 10773 10776 10778 10780 10781 10781
10385 10404 10425 10447 10470 10492 10514 10537 10558 10578 10592 10606 10614 10623 10634 10643 10649 10656 10665 10677 10685 10694 10702 10707 10712 10718 10723 10728 10732 10737 10740 10745 10748 10750 10754 10759 10761 10763 10765 10768 10770 10773 10774
10391 10408 10429 10450 10471 10492 10514 10534 10553 10569 10585 10598 10604 10615 10620 10632 10642 10647 10655 10667 10676 10683 10691 10696 10701 10707 10712 10715 10720 10725 10729 10732 10735 10740 10744 10747 10749 10750 10753 10757 10760 10763 10764
10399 10415 10436 10455 10473 10493 10513 10533 10548 10563 10578 10588 10594 10605 10616 10626 10633 10638 10647 10656 10663 10669 10677 10685 10690 10697 10699 10702 10706 10711 10716 10718 10722 10726 10730 10733 10735 10739 10742 10746 10748 10750 10753
10410 10422 10440 10460 10479 10495 10513 10530 10546 10559 10573 10584 10587 10597 10606 10613 10619 10626 10634 10640 10646 10653 10663 10669 10675 10681 10684 10689 10694 10697 10700 10702 10709 10712 10714 10717 10722 10725 10727 10732 10734 10737 10740
10423 10434 10449 10467 10484 10500 10516 10532 10544 10556 10568 10578 10582 10589 10598 10603 10612 10618 10622 10627 10633 10636 10644 10652 10657 10665 10670 10673 10679 10680 10684 10687 10691 10694 10698 10702 10705 10710 10712 10716 10719 10722 10725
10437 10451 10465 10480 10493 10508 10522 10532 10543 10553 10561 10569 10574 10579 10585 10590 10596 10603 10608 10613 10618 10621 10627 10635 10639 10646 10651 10655 10659 10663 10668 10670 10673 10676 10682 10683 10685 10692 10694 10697 10702 10707 10711
10452 10462 10475 10488 10500 10511 10522 10532 10542 10549 10555 10561 10566 10569 10573 10577 10583 10590 10594 10597 10603 10608 10613 10619 10625 10630 10635 10639 10641 10646 10649 10653 10656 10658 10661 10664 10666 10671 10671 10674 10677 10684 10690
10462 10471 10480 10488 10497 10507 10516 10523 10530 10537 10546 10556 10562 10560 10562 10564 10568 10570 10574 10580 10584 10590 10596 10601 10606 10609 10612 10616 10620 10623 10626 10631 10634 10635 10637 10642 10645 10647 10650 10650 10655 10658 10671